Ukiah, CA

10:56 PM PDT on March 23, 2017 (GMT -0700)
Ukiah Municipal

Weather History for KUKI - August, 2012

Change the Weather History Date:

Sunday, August 5, 2012

  Actual Average Record
Temperature  
Mean Temperature 73 °F 74 °F  
Max Temperature 90 °F 93 °F 108 °F (1978)
Min Temperature 56 °F 54 °F 42 °F (1919)
Degree Days  
Heating Degree Days 0 0  
Month to date heating degree days 0 0  
Since 1 June heating degree days 63 33  
Since 1 July heating degree days 0 1  
Cooling Degree Days 8 9  
Month to date cooling degree days 50 45  
Year to date cooling degree days 499 488  
Since 1 June cooling degree days 437 436  
Growing Degree Days 23 (Base 50)    
Moisture  
Dew Point 55 °F    
Average Humidity 64    
Maximum Humidity 93    
Minimum Humidity 34    
Precipitation  
Precipitation 0.00 in 0.00 in 0.09 in (1974)
Month to date precipitation T 0.00  
Year to date precipitation 18.92 23.42  
Since 1 July precipitation T  
Snow  
Snow 0.00 in - - ()
Month to date snowfall 0.0  
Since 1 June snowfall 0.0  
Since 1 July snowfall 0.0  
Snow Depth 0.00 in    
Sea Level Pressure  
Sea Level Pressure 29.98 in    
Wind  
Wind Speed 5 mph (SE)    
Max Wind Speed 17 mph    
Max Gust Speed 22 mph    
Visibility 10 miles    
Events      
T = Trace of Precipitation, MM = Missing Value Source: NWS Daily Summary

Daily Weather History Graph

Daily Weather History Graph

Search for Another Location

Airport or City:

Trip Planner

Search our weather history database for the weather conditions in past years. The results will help you decide how hot, cold, wet, or windy it might be!

Date:

Astronomy

Aug. 05, 2012 Rise Set
Actual Time 6:17 AM PDT 8:19 PM PDT
Civil Twilight 5:47 AM PDT 8:48 PM PDT
Nautical Twilight 5:12 AM PDT 9:24 PM PDT
Astronomical Twilight 4:33 AM PDT 10:03 PM PDT
Moon 10:03 PM PDT (8/5) 10:09 AM PDT (8/5)
Length of Visible Light 15h 00m
Length of Day
14h 02m
Waning Gibbous, 85% of the Moon is Illuminated
Aug 5
Waning Gibbous
Aug 9
Last Quarter
Aug 17
New
Aug 24
First Quarter
Aug 31
Full

Hourly Weather History & Observations

Time (PDT) Temp. Heat Index Dew Point Humidity Pressure Visibility Wind Dir Wind Speed Gust Speed Precip Events Conditions
12:56 AM 63.0 °F - 55.0 °F 75% 29.92 in 10.0 mi South 9.2 mph - N/A   Clear
1:56 AM 61.0 °F - 54.0 °F 78% 29.94 in 10.0 mi South 6.9 mph - N/A   Clear
2:56 AM 61.0 °F - 54.0 °F 78% 29.94 in 10.0 mi SSE 4.6 mph - N/A   Clear
3:56 AM 60.1 °F - 54.0 °F 80% 29.94 in 10.0 mi South 4.6 mph - N/A   Clear
4:56 AM 57.9 °F - 54.0 °F 87% 29.94 in 10.0 mi Calm Calm - N/A   Clear
5:56 AM 57.0 °F - 53.1 °F 87% 29.96 in 10.0 mi SSE 3.5 mph - N/A   Clear
6:56 AM 57.0 °F - 54.0 °F 89% 29.97 in 10.0 mi SSE 5.8 mph - N/A   Clear
7:11 AM 57.2 °F - 53.6 °F 88% 30.00 in 10.0 mi SSE 4.6 mph - N/A   Scattered Clouds
7:38 AM 57.2 °F - 55.4 °F 94% 30.01 in 10.0 mi SSE 4.6 mph - N/A   Mostly Cloudy
7:56 AM 57.9 °F - 55.0 °F 90% 29.99 in 10.0 mi SSE 5.8 mph - N/A   Mostly Cloudy
8:16 AM 60.8 °F - 55.4 °F 82% 30.01 in 10.0 mi SE 4.6 mph - N/A   Scattered Clouds
8:56 AM 62.1 °F - 55.0 °F 78% 30.00 in 10.0 mi Calm Calm - N/A   Partly Cloudy
9:56 AM 66.9 °F - 55.9 °F 68% 30.00 in 10.0 mi Calm Calm - N/A   Clear
10:56 AM 72.0 °F - 57.0 °F 59% 29.99 in 10.0 mi Calm Calm - N/A   Clear
11:56 AM 78.1 °F - 57.0 °F 48% 29.97 in 10.0 mi Variable 3.5 mph - N/A   Clear
12:56 PM 82.9 °F 82.4 °F 57.0 °F 41% 29.96 in 10.0 mi SE 11.5 mph - N/A   Clear
1:56 PM 87.1 °F 85.7 °F 55.9 °F 35% 29.95 in 10.0 mi SE 12.7 mph - N/A   Clear
2:56 PM 88.0 °F 86.5 °F 55.9 °F 34% 29.94 in 10.0 mi SE 11.5 mph - N/A   Clear
3:56 PM 89.1 °F 87.7 °F 57.0 °F 34% 29.94 in 10.0 mi SE 11.5 mph - N/A   Clear
4:56 PM 89.1 °F 87.7 °F 57.0 °F 34% 29.94 in 10.0 mi SSE 9.2 mph - N/A   Clear
5:56 PM 87.1 °F 86.1 °F 57.9 °F 37% 29.94 in 10.0 mi Calm Calm - N/A   Clear
6:56 PM 81.0 °F 81.1 °F 57.9 °F 45% 29.95 in 10.0 mi North 6.9 mph - N/A   Clear
7:56 PM 71.1 °F - 57.0 °F 61% 29.98 in 10.0 mi NNE 6.9 mph - N/A   Clear
8:56 PM 66.0 °F - 55.9 °F 70% 30.02 in 10.0 mi NNE 5.8 mph - N/A   Clear
9:56 PM 64.0 °F - 55.0 °F 73% 30.05 in 10.0 mi North 4.6 mph - N/A   Clear
10:56 PM 62.1 °F - 55.0 °F 78% 30.06 in 10.0 mi Calm Calm - N/A   Clear
11:56 PM 59.0 °F - 54.0 °F 83% 30.06 in 10.0 mi Calm Calm - N/A   Clear